This is the latest recevied weather packets stored in our database for station/object EA5CLU-13. If no packets are shown the sender has not sent any weather packets the latest 10 day(s).
| Time | Temp. | Humidity | Pressure | Rain* | Wind** | Luminosity | Snow |
|---|---|---|---|---|---|---|---|
| 1787578909 | 27.22° C | - | 1015.1 hPa | 0 mm | - | - | - |
| 1787578608 | 27.22° C | - | 1015.4 hPa | 0 mm | - | - | - |
| 1787571407 | 28.89° C | - | 1016 hPa | 0 mm | - | - | - |
| 1787571107 | 28.33° C | - | 1015.9 hPa | 0 mm | - | - | - |
| 1787570808 | 28.33° C | - | 1016.3 hPa | 0 mm | - | - | - |
| 1787570508 | 28.33° C | - | 1016.2 hPa | 0 mm | - | - | - |
| 1787570207 | 27.78° C | - | 1016.5 hPa | 0 mm | - | - | - |
| 1787569907 | 27.78° C | - | 1016.8 hPa | 0 mm | - | - | - |
| 1787569607 | 27.78° C | - | 1016.7 hPa | 0 mm | - | - | - |
| 1787569307 | 27.22° C | - | 1016.8 hPa | 0 mm | - | - | - |
| 1787568408 | 26.67° C | - | 1017 hPa | 0 mm | - | - | - |
| 1787568108 | 26.11° C | - | 1016.9 hPa | 0 mm | - | - | - |
| 1787567807 | 26.11° C | - | 1017.2 hPa | 0 mm | - | - | - |
| 1787567507 | 25.56° C | - | 1017.3 hPa | 0 mm | - | - | - |
| 1787567207 | 25° C | - | 1017.1 hPa | 0 mm | - | - | - |
| 1787566908 | 25° C | - | 1017.2 hPa | 0 mm | - | - | - |
| 1787566608 | 25° C | - | 1017.2 hPa | 0 mm | - | - | - |
| 1787566351 | 25° C | - | 1017.3 hPa | 0 mm | - | - | - |
| 1787565213 | 23.33° C | - | 1017.8 hPa | 0 mm | - | - | - |
| 1787564914 | 23.89° C | - | 1018 hPa | 0 mm | - | - | - |
| 1787564612 | 23.89° C | - | 1018.1 hPa | 0 mm | - | - | - |
| 1787564312 | 23.33° C | - | 1018.4 hPa | 0 mm | - | - | - |
| 1787564014 | 23.33° C | - | 1018.3 hPa | 0 mm | - | - | - |
| 1787563714 | 23.33° C | - | 1018.1 hPa | 0 mm | - | - | - |
| 1787563412 | 23.33° C | - | 1017.8 hPa | 0 mm | - | - | - |
* Rain latest hour (hover to see other rain measurements)
** Current wind speed in m/s (hover to see current wind gust speed)